DW1920 Weather Reports


Display with metric or nautical units.
time (UTC)temp
F
wind
direction
speed
MPH
gust
MPH
rain 1hr
in
rain 24hr
in
rain mn
in
humidity
%
barometer
mb
20260906152003 67 329 5.0 13.0 0.00 0.00 0.00 51 1012.8
20260906151002 66 0 11.0 19.0 0.00 0.00 0.00 49 1012.9
20260906150003 65 9 10.0 18.0 0.00 0.00 0.00 50 1013.1
20260906145024 66 347 10.0 17.0 0.00 0.00 0.00 51 1013.2
20260906144003 65 9 10.0 18.0 0.00 0.00 0.00 52 1013.3
20260906143003 65 14 10.0 16.0 0.00 0.00 0.00 55 1013.2
20260906142003 64 355 10.0 18.0 0.00 0.00 0.00 59 1013.2
20260906141002 63 356 9.0 15.0 0.00 0.00 0.00 62 1013.2
20260906140024 62 3 10.0 19.0 0.00 0.00 0.00 64 1013.3
20260906135003 61 3 7.0 18.0 0.00 0.00 0.00 68 1013.4
20260906134003 61 358 8.0 18.0 0.00 0.00 0.00 69 1013.3
20260906133003 60 351 9.0 17.0 0.00 0.00 0.00 71 1013.4
20260906132002 60 356 6.0 15.0 0.00 0.00 0.00 71 1013.5
20260906131003 59 357 9.0 14.0 0.00 0.00 0.00 72 1013.4
20260906130003 59 352 3.0 12.0 0.00 0.00 0.00 73 1013.4
20260906125003 59 350 7.0 12.0 0.00 0.00 0.00 73 1013.5
20260906124003 59 353 5.0 17.0 0.00 0.00 0.00 73 1013.5
20260906122003 58 344 10.0 17.0 0.00 0.00 0.00 77 1013.5
20260906121002 57 347 9.0 14.0 0.00 0.00 0.00 78 1013.5
20260906120003 57 343 6.0 17.0 0.00 0.00 0.00 79 1013.3
20260906115003 56 0 11.0 14.0 0.00 0.00 0.00 82 1013.1
20260906114024 56 341 6.0 11.0 0.00 0.00 0.00 83 1013.1
20260906113024 55 343 7.0 11.0 0.00 0.00 0.00 83 1013.2
20260906112003 55 339 6.0 13.0 0.00 0.00 0.00 83 1013.1
20260906111002 55 352 5.0 10.0 0.00 0.00 0.00 83 1013.0
20260906110003 55 338 6.0 10.0 0.00 0.00 0.00 84 1013.0
20260906105003 55 340 5.0 9.0 0.00 0.00 0.00 84 1013.1
20260906104003 55 355 5.0 13.0 0.00 0.00 0.00 85 1013.1
20260906103003 55 356 6.0 12.0 0.00 0.00 0.00 86 1012.8
20260906102002 54 353 7.0 12.0 0.00 0.00 0.00 86 1012.8
20260906101003 54 349 5.0 11.0 0.00 0.00 0.00 87 1012.8
20260906100002 54 337 6.0 10.0 0.00 0.00 0.00 86 1012.8
20260906095024 55 331 7.0 10.0 0.00 0.00 0.00 85 1012.7
20260906094003 55 339 7.0 11.0 0.00 0.00 0.00 84 1012.7
20260906093003 55 359 6.0 13.0 0.00 0.00 0.00 85 1012.4
20260906092003 55 356 7.0 13.0 0.00 0.00 0.00 85 1012.3
20260906091003 55 1 6.0 12.0 0.00 0.00 0.00 86 1012.3
20260906090002 55 350 7.0 10.0 0.00 0.00 0.00 86 1012.3
20260906085003 55 359 4.0 8.0 0.00 0.00 0.00 86 1012.3
20260906084024 55 348 5.0 8.0 0.00 0.00 0.00 85 1012.4
20260906083024 56 0 6.0 9.0 0.00 0.00 0.00 85 1012.3
20260906082003 56 346 6.0 12.0 0.00 0.00 0.00 84 1012.4
20260906081002 56 343 7.0 14.0 0.00 0.00 0.00 85 1012.1
20260906080003 56 359 7.0 12.0 0.00 0.00 0.00 85 1012.0
20260906075003 56 4 6.0 14.0 0.00 0.00 0.00 85 1011.9
20260906074024 56 354 5.0 12.0 0.00 0.00 0.00 86 1011.9
20260906073024 56 354 6.0 15.0 0.00 0.00 0.00 86 1012.0
20260906072024 56 11 6.0 11.0 0.00 0.00 0.00 86 1011.8
20260906071003 56 352 6.0 9.0 0.00 0.00 0.00 86 1011.8
20260906070003 56 358 6.0 9.0 0.00 0.00 0.00 86 1011.8
20260906065003 56 346 4.0 8.0 0.00 0.00 0.00 86 1011.9
20260906064003 56 342 4.0 10.0 0.00 0.00 0.00 86 1011.9
20260906063002 56 357 4.0 8.0 0.00 0.00 0.00 86 1011.9
20260906062003 56 354 6.0 10.0 0.00 0.00 0.00 85 1011.8
20260906061002 57 353 5.0 10.0 0.00 0.00 0.00 85 1011.9
20260906060024 57 350 5.0 10.0 0.00 0.00 0.00 85 1011.9
20260906055003 57 342 5.0 10.0 0.00 0.00 0.00 85 1011.9
20260906054002 57 344 5.0 8.0 0.00 0.00 0.00 84 1011.8
20260906053003 57 347 3.0 10.0 0.00 0.00 0.00 84 1011.9
20260906052002 58 344 5.0 9.0 0.00 0.00 0.00 84 1011.8
20260906051003 58 356 5.0 9.0 0.00 0.00 0.00 84 1011.8
20260906050045 58 348 5.0 9.0 0.00 0.00 0.00 84 1011.9
20260906045003 58 348 5.0 9.0 0.00 0.00 0.00 83 1011.9
20260906044003 58 350 5.0 10.0 0.00 0.00 0.00 83 1011.8
20260906043002 58 359 4.0 9.0 0.00 0.00 0.00 83 1011.7
20260906042024 58 6 5.0 8.0 0.00 0.00 0.00 82 1011.6
20260906041003 59 9 4.0 8.0 0.00 0.00 0.00 82 1011.6
20260906040002 59 356 3.0 7.0 0.00 0.00 0.00 82 1011.6
20260906035003 59 10 5.0 9.0 0.00 0.00 0.00 82 1011.7
20260906034024 59 16 5.0 9.0 0.00 0.00 0.00 82 1011.6
20260906033003 60 346 4.0 7.0 0.00 0.00 0.00 81 1011.7
20260906032003 60 13 2.0 4.0 0.00 0.00 0.00 81 1011.7
20260906031002 61 4 3.0 7.0 0.00 0.00 0.00 81 1011.7
20260906030003 61 15 4.0 11.0 0.00 0.00 0.00 81 1011.5
20260906025003 61 25 6.0 11.0 0.00 0.00 0.00 81 1011.6
20260906024003 62 23 6.0 14.0 0.00 0.00 0.00 81 1011.5
20260906023003 62 33 8.0 11.0 0.00 0.00 0.00 81 1011.5
20260906022003 62 36 8.0 12.0 0.00 0.00 0.00 81 1011.5
20260906021045 62 36 6.0 11.0 0.00 0.00 0.00 82 1011.5
20260906020003 62 24 4.0 7.0 0.00 0.00 0.00 81 1011.5
20260906015003 63 14 5.0 10.0 0.00 0.00 0.00 81 1011.4
20260906014003 63 29 7.0 11.0 0.00 0.00 0.00 80 1011.4
20260906013003 63 32 9.0 15.0 0.00 0.00 0.00 79 1011.4
20260906012003 63 33 10.0 15.0 0.00 0.00 0.00 79 1011.4
20260906011003 64 34 9.0 16.0 0.00 0.00 0.00 77 1011.3
20260906010003 64 35 13.0 17.0 0.00 0.00 0.00 78 1011.3
20260906005003 63 35 6.0 9.0 0.00 0.00 0.00 80 1011.2
20260906004023 64 27 2.0 3.0 0.00 0.00 0.00 78 1011.3
20260906003003 64 27 2.0 4.0 0.00 0.00 0.00 77 1011.2
20260906002024 64 25 3.0 4.0 0.00 0.00 0.00 77 1011.0
20260906001003 64 26 3.0 5.0 0.00 0.00 0.00 78 1010.9
20260906000003 64 15 3.0 5.0 0.00 0.00 0.00 78 1010.9
20260905235045 64 11 3.0 4.0 0.00 0.00 0.00 79 1010.9
20260905234024 64 18 3.0 5.0 0.00 0.00 0.00 79 1010.8
20260905233003 64 18 3.0 5.0 0.00 0.00 0.00 80 1010.8
20260905232003 64 23 2.0 6.0 0.00 0.00 0.00 80 1010.7
20260905231002 63 25 4.0 9.0 0.00 0.00 0.00 80 1010.7
20260905230024 64 24 4.0 9.0 0.00 0.00 0.00 80 1010.7
20260905225003 64 26 6.0 11.0 0.00 0.00 0.00 78 1010.6
20260905224003 66 50 9.0 17.0 0.00 0.00 0.00 74 1010.6
20260905223003 67 22 10.0 16.0 0.00 0.00 0.00 66 1010.4
20260905222003 68 13 5.0 9.0 0.00 0.00 0.00 67 1010.3
20260905221002 69 7 6.0 9.0 0.00 0.00 0.00 66 1010.2
20260905215002 68 12 2.0 7.0 0.00 0.00 0.00 69 1009.9
20260905214003 68 18 6.0 9.0 0.00 0.00 0.00 68 1009.9
20260905213024 68 10 5.0 12.0 0.00 0.00 0.00 68 1009.7
20260905212003 68 16 8.0 13.0 0.00 0.00 0.00 67 1009.5
20260905211003 68 27 6.0 14.0 0.00 0.00 0.00 67 1009.6
20260905210002 69 22 6.0 14.0 0.00 0.00 0.00 66 1009.4
20260905205003 68 23 7.0 13.0 0.00 0.04 0.00 67 1009.4
20260905204003 68 22 5.0 14.0 0.00 0.04 0.00 69 1009.3
20260905203003 68 21 8.0 17.0 0.00 0.04 0.00 67 1009.3
20260905202003 69 23 10.0 20.0 0.00 0.04 0.00 64 1009.3
20260905201002 69 6 9.0 17.0 0.00 0.04 0.00 65 1009.1
20260905200003 69 32 7.0 14.0 0.00 0.04 0.00 66 1009.0
20260905195003 69 39 8.0 15.0 0.00 0.04 0.00 68 1009.0
20260905194003 68 24 9.0 15.0 0.00 0.04 0.00 67 1008.9
20260905193003 69 39 9.0 20.0 0.00 0.04 0.00 66 1008.9
20260905192003 69 16 10.0 18.0 0.00 0.04 0.00 64 1009.0
20260905191003 69 18 8.0 14.0 0.00 0.04 0.00 66 1009.0
20260905190003 68 17 8.0 21.0 0.00 0.04 0.00 67 1009.1
20260905185024 69 3 9.0 18.0 0.00 0.04 0.00 65 1009.1
20260905184003 71 23 3.0 15.0 0.00 0.04 0.00 63 1008.9
20260905183002 71 5 10.0 19.0 0.00 0.04 0.00 62 1008.8
20260905182004 70 13 10.0 21.0 0.00 0.04 0.00 62 1008.9
20260905181024 69 22 15.0 22.0 0.00 0.04 0.00 64 1008.9
20260905180024 70 23 13.0 21.0 0.00 0.04 0.00 63 1008.9
20260905175002 69 20 10.0 20.0 0.00 0.04 0.00 66 1008.9
20260905174004 69 15 13.0 24.0 0.00 0.04 0.00 65 1008.9
20260905173002 69 37 12.0 23.0 0.00 0.04 0.00 70 1009.0
20260905172003 69 33 14.0 19.0 0.00 0.04 0.00 67 1008.9
20260905171003 69 23 10.0 22.0 0.00 0.04 0.00 66 1009.0
20260905170003 69 22 12.0 21.0 0.00 0.04 0.00 68 1009.0
20260905165003 68 32 12.0 19.0 0.00 0.04 0.00 70 1009.1
20260905164002 68 26 13.0 25.0 0.00 0.04 0.00 69 1009.2
20260905163003 68 12 15.0 26.0 0.00 0.04 0.00 69 1009.1
20260905162003 67 22 14.0 22.0 0.00 0.04 0.00 71 1009.3
20260905161024 68 38 15.0 20.0 0.00 0.04 0.00 72 1009.1
20260905160003 68 37 13.0 20.0 0.00 0.04 0.00 73 1009.1
20260905155002 67 27 14.0 21.0 0.00 0.04 0.00 72 1009.2
20260905154003 67 46 12.0 17.0 0.00 0.04 0.00 74 1009.1
20260905153024 67 38 11.0 19.0 0.00 0.04 0.00 75 1009.2